Tracking 19562 objects as of 21-Mar-2019
HD Live streaming from Space Station
objects crossing your sky now

DMSP 5D-2 F9 (USA 29)

Track DMSP 5D-2 F9 (USA 29) now!
10-day predictions
DMSP 5D-2 F9 (USA 29) is classified as:


NORAD ID: 18822
Int'l Code: 1988-006A
Perigee: 804.3 km
Apogee: 812.0 km
Inclination: 98.5 °
Period: 100.9 minutes
Semi major axis: 7179 km
RCS: 3.9585 m2 (large)
Launch date: February 3, 1988
Source: United States (US)
Launch site: AIR FORCE WESTERN TEST RANGE (AFWTR)
aabbcc
Your satellite tracking list
Your tracking list is empty




NASA's NSSDC Master Catalog

Two Line Element Set (TLE):
1 18822U 88006A   19080.52362782  .00000031  00000-0  30150-4 0  9993
2 18822  98.5296 316.4066 0005430 306.1150  53.9528 14.27228553618934
Source of the keplerian elements: AFSPC